Total_Precipitation_Accumulation
1.44 1.34 1.31 1.47 1.46 1.59 1.62 1.70 1.75 1.59 1.40 1.26 1.27 1.24 1.32 1.31 1.24 1.20 1.48 1.76 2.07 2.66 2.95 2.88 2.75 2.57 2.54 2.53 2.44 2.42 2.36 2.24 2.44 2.83 3.41 3.66 3.38 2.87 2.54 2.24 2.00 1.77 1.80
1.28 1.32 1.23 1.30 1.39 1.59 1.84 1.93 1.75 1.63 1.51 1.44 1.44 1.39 1.39 1.35 1.31 1.22 1.36 1.49 1.47 1.78 2.32 2.88 3.14 3.02 2.87 2.79 2.62 2.61 2.54 2.37 2.40 2.57 2.63 2.75 2.82 2.54 2.26 2.19 2.02 1.79 1.93
1.08 1.21 1.28 1.27 1.32 1.58 1.88 2.08 1.94 1.78 1.58 1.55 1.54 1.52 1.43 1.42 1.36 1.32 1.43 1.57 1.44 1.43 1.81 2.44 3.07 3.30 3.11 2.98 2.79 2.71 2.50 2.26 2.17 2.24 2.33 2.29 2.43 2.42 2.24 2.16 2.03 1.91 1.92
1.09 1.21 1.33 1.28 1.31 1.56 1.84 2.07 2.13 2.10 1.98 1.87 1.76 1.64 1.56 1.67 1.53 1.44 1.53 1.67 1.77 1.61 1.64 1.98 2.46 2.94 3.13 3.11 2.82 2.54 2.30 2.09 2.04 2.01 2.08 1.93 2.07 2.26 2.24 2.15 2.14 2.19 2.14
1.12 1.26 1.49 1.53 1.54 1.72 1.81 1.83 1.99 2.04 2.09 2.06 1.82 1.75 1.66 1.76 1.84 1.75 1.84 1.96 2.02 1.94 1.81 1.74 1.88 2.09 2.65 2.99 2.92 2.68 2.48 2.20 2.05 1.94 2.03 1.89 1.87 2.13 2.24 2.11 2.15 2.26 2.27
1.36 1.34 1.52 1.58 1.64 1.88 1.92 1.96 2.19 2.19 2.11 2.17 1.94 1.81 1.76 1.75 1.78 1.99 2.15 2.18 2.16 1.97 1.94 1.79 1.86 1.79 2.13 2.58 2.70 2.65 2.57 2.56 2.45 2.24 2.26 2.16 1.98 2.09 2.23 2.10 2.15 2.20 2.29
1.47 1.51 1.58 1.64 1.68 1.80 1.85 1.97 2.32 2.37 2.21 2.07 2.25 2.23 2.13 1.92 1.83 1.92 2.05 2.27 2.34 2.11 2.03 2.03 1.94 1.84 1.75 1.92 2.12 2.41 2.53 2.82 2.93 2.71 2.52 2.33 2.12 2.24 2.36 2.21 2.24 2.21 2.18
1.41 1.37 1.60 1.74 1.72 1.87 1.93 2.08 2.37 2.61 2.37 2.17 2.51 2.98 2.75 2.45 2.10 1.87 1.89 1.95 2.18 2.15 1.98 1.86 1.79 1.79 1.74 1.73 1.61 1.89 2.25 2.73 3.16 2.98 2.59 2.45 2.30 2.22 2.32 2.23 2.22 2.16 2.12
1.66 1.62 1.73 1.90 1.86 1.92 2.03 2.07 2.15 2.64 2.81 2.57 2.48 3.05 2.92 2.70 2.66 2.12 1.70 1.60 1.85 2.03 2.02 1.89 1.84 1.92 1.93 1.91 1.69 1.58 1.82 2.20 2.85 2.92 2.65 2.63 2.56 2.35 2.18 2.08 2.06 2.15 2.23
1.89 1.78 1.82 1.92 1.97 2.04 2.01 1.84 1.99 2.47 2.98 3.05 2.80 2.55 2.38 2.32 2.53 2.45 1.88 1.55 1.61 1.78 1.99 1.87 1.87 1.98 2.04 2.12 2.02 1.71 1.56 1.74 2.29 2.85 3.00 2.92 2.80 2.56 2.36 2.20 2.12 2.13 2.13
1.93 1.78 1.74 1.89 2.00 2.07 2.05 2.10 2.24 2.53 2.82 3.10 3.07 2.80 2.48 2.24 1.86 2.06 2.09 1.86 1.59 1.49 1.59 1.71 1.86 1.92 1.99 2.00 2.05 1.87 1.54 1.40 1.68 2.32 2.88 3.04 2.94 2.80 2.69 2.63 2.64 2.57 2.40
1.79 1.72 1.71 1.75 1.77 1.85 1.94 2.11 2.34 2.48 2.67 2.88 2.94 2.65 2.48 2.37 2.16 2.00 1.84 1.91 1.87 1.56 1.42 1.42 1.55 1.73 1.80 1.88 1.77 1.80 1.55 1.32 1.31 1.48 1.88 2.42 2.67 2.78 2.85 2.93 2.89 2.76 2.69
1.59 1.57 1.59 1.60 1.53 1.54 1.66 1.84 2.10 2.16 2.28 2.48 2.57 2.46 2.32 2.15 2.10 2.15 2.09 1.97 1.81 1.53 1.40 1.25 1.33 1.47 1.48 1.64 1.78 1.76 1.51 1.38 1.22 1.17 1.22 1.43 1.84 2.19 2.53 2.87 3.00 2.97 2.93
1.40 1.33 1.35 1.41 1.41 1.41 1.45 1.61 1.77 1.79 1.86 2.05 2.10 2.17 2.08 2.00 2.03 2.03 2.05 2.18 2.03 1.78 1.42 1.11 1.16 1.32 1.27 1.36 1.64 1.68 1.34 1.27 1.14 1.08 1.06 1.07 1.21 1.48 1.85 2.17 2.49 2.68 2.77
1.15 1.11 1.16 1.28 1.36 1.34 1.32 1.46 1.60 1.58 1.66 1.80 1.92 2.07 2.00 1.94 1.93 1.96 2.02 2.11 2.16 2.02 1.71 1.26 1.11 1.09 1.11 1.18 1.50 1.37 1.26 1.25 1.13 1.06 0.97 0.91 0.92 0.99 1.15 1.37 1.62 1.84 1.98
1.07 1.07 1.09 1.10 1.12 1.14 1.20 1.38 1.56 1.62 1.60 1.66 1.74 1.85 1.99 1.99 1.99 1.98 2.03 2.05 2.04 2.01 1.87 1.46 1.20 1.05 1.12 1.06 1.27 1.06 1.17 1.36 1.14 0.98 0.90 0.85 0.84 0.86 0.89 1.01 1.07 1.14 1.20
0.84 0.85 0.85 0.89 1.02 1.03 1.05 1.21 1.31 1.34 1.45 1.54 1.52 1.55 1.73 1.85 1.97 1.98 1.98 1.97 2.01 1.97 1.83 1.59 1.26 1.10 1.20 1.21 1.25 1.09 1.06 1.11 1.04 0.99 0.91 0.83 0.78 0.80 0.79 0.82 0.83 0.82 0.85
0.61 0.66 0.73 0.72 0.92 1.09 1.11 1.14 1.14 1.13 1.26 1.35 1.38 1.46 1.51 1.52 1.63 1.76 1.86 1.82 1.89 1.93 1.90 1.79 1.50 1.27 1.27 1.34 1.48 1.46 1.33 1.23 1.19 1.27 1.21 1.03 0.89 0.86 0.86 0.82 0.77 0.72 0.69
0.53 0.60 0.69 0.69 0.76 0.91 1.02 1.02 1.00 1.01 1.07 1.14 1.18 1.26 1.29 1.36 1.51 1.50 1.56 1.64 1.71 1.77 1.88 1.84 1.75 1.62 1.46 1.39 1.45 1.42 1.47 1.59 1.52 1.49 1.51 1.33 1.12 1.00 0.95 0.92 0.84 0.76 0.70
0.56 0.58 0.56 0.60 0.66 0.77 0.88 0.88 0.89 0.90 0.92 0.93 1.05 1.13 1.18 1.23 1.33 1.37 1.38 1.50 1.64 1.73 1.76 1.74 1.69 1.62 1.56 1.52 1.51 1.49 1.54 1.66 1.73 1.61 1.55 1.46 1.38 1.27 1.14 1.05 0.95 0.89 0.81
0.41 0.44 0.42 0.43 0.48 0.58 0.64 0.64 0.71 0.79 0.85 0.88 0.98 1.01 1.04 1.01 1.04 1.10 1.09 1.27 1.44 1.62 1.69 1.73 1.64 1.52 1.47 1.49 1.46 1.47 1.54 1.72 1.75 1.77 1.74 1.60 1.47 1.31 1.22 1.15 1.05 1.01 0.97
0.26 0.31 0.34 0.38 0.40 0.42 0.53 0.54 0.56 0.66 0.75 0.80 0.88 0.92 0.99 1.01 0.95 0.91 0.89 0.95 1.07 1.21 1.40 1.54 1.58 1.50 1.43 1.41 1.51 1.61 1.60 1.70 1.80 1.70 1.60 1.67 1.60 1.51 1.35 1.20 1.21 1.19 1.10
0.25 0.27 0.31 0.38 0.35 0.33 0.39 0.38 0.51 0.68 0.69 0.69 0.69 0.84 0.96 1.00 1.03 1.04 0.93 0.92 0.90 0.92 1.02 1.21 1.36 1.37 1.36 1.39 1.49 1.59 1.65 1.70 1.57 1.57 1.53 1.64 1.63 1.51 1.35 1.32 1.38 1.24 1.18
0.27 0.32 0.34 0.39 0.34 0.26 0.30 0.35 0.45 0.57 0.62 0.58 0.60 0.72 0.88 0.99 1.05 1.08 1.03 1.08 1.03 0.90 0.87 0.93 1.11 1.21 1.24 1.41 1.60 1.74 1.83 1.83 1.70 1.62 1.53 1.57 1.51 1.39 1.28 1.27 1.38 1.26 1.15
0.25 0.30 0.38 0.39 0.32 0.25 0.28 0.35 0.46 0.57 0.64 0.61 0.59 0.66 0.81 0.90 1.04 1.10 1.04 1.13 1.11 0.91 0.84 0.92 0.96 1.05 1.18 1.33 1.54 1.74 1.82 1.82 1.77 1.67 1.46 1.33 1.25 1.30 1.32 1.27 1.25 1.24 1.12
0.25 0.29 0.33 0.33 0.29 0.30 0.32 0.33 0.40 0.45 0.55 0.61 0.61 0.64 0.85 0.91 0.99 0.95 0.94 1.14 1.23 1.07 0.82 0.82 0.89 1.03 1.14 1.29 1.53 1.69 1.93 1.94 1.74 1.65 1.47 1.32 1.29 1.37 1.51 1.39 1.21 1.12 1.05